Miscellaneous Local Product
Issued by NWS North Platte, NE

Home | Current Version | Previous Version | Text Only | Print | Product List | Glossary On
Versions: 1 2 3 4 5 6 7 8 9 10 11 12 13 14 15 16 17 18 19 20 21 22 23 24 25 26 27 28 29 30 31 32 33 34 35 36 37 38 39 40 41 42 43 44 45 46 47 48 49 50
000
AXUS43 KLBF 212210
MISLBF


WESTERN AND NORTH CENTRAL NEBRASKA HOURLY WEATHER ROUNDUP
NATIONAL WEATHER SERVICE NORTH PLATTE NE
500 PM CDT SUN SEP 21 2014

***STATIONS NOT REPORTING VARIABLES SUCH AS SKY/WEATHER OR
PRESSURE ARE PROVIDED BY THE NEBRASKA DEPARTMENT OF
ROADS...RAWS...AND APRS NETWORKS...AND ARE NOT UNDER
NATIONAL WEATHER SERVICE QUALITY CONTROL***

...OBSERVATIONS IN AND NEAR THE EASTERN PANHANDLE OF NEBRASKA...

CITY           SKY/WX    TMP DP  RH WIND       PRES   REMARKS
PINE RIDGE     SUNNY     74  39  28 E9        30.28F
CHADRON        SUNNY     76  40  27 VRB6      30.25F
ALLIANCE       SUNNY     74  39  28 SE6       30.29F
SIDNEY         SUNNY     74  39  28 SE12      30.31F
WHITECLAY        N/A     73  38  27 NE5         N/A
RUSHVILLE        N/A     76  25  15 SE12        N/A
CRESCENT LAKE    N/A     76  40  27 E3          N/A
LISCO            N/A     76  34  21 E8          N/A
BIG SPRINGS      N/A     73  42  33 CALM        N/A
$$

...OBSERVATIONS IN NORTH CENTRAL NEBRASKA...

CITY           SKY/WX    TMP DP  RH WIND       PRES   REMARKS
VALENTINE      SUNNY     75  37  25 MISG      30.28F
THEDFORD       SUNNY     74  38  26 N6        30.29S
AINSWORTH      SUNNY     71  37  29 N8        30.28F
O`NEILL        SUNNY     71  45  40 N9        30.27S
ORD            SUNNY     73  41  31 N13       30.25S
BROKEN BOW     SUNNY     76  36  23 NE9       30.26F
SPRINGVIEW       N/A     72  42  34 NW6         N/A
ROSE             N/A     76  44  31 NE8         N/A
NEWPORT          N/A     73  42  32 SE5         N/A
COMSTOCK         N/A     80  39  22 N10         N/A
CHAMBERS         N/A     71  43  36 N3G12       N/A
$$

...OBSERVATIONS IN SOUTHWEST NEBRASKA AND FAR NORTHEAST COLORADO...

CITY           SKY/WX    TMP DP  RH WIND       PRES   REMARKS
WRAY           MOCLDY    75  37  25 E12       30.29F
HOLYOKE        FAIR      79  41  25 E9G16     30.29F
IMPERIAL       MOSUNNY   76  37  24 VRB6      30.28F
OGALLALA       MOSUNNY   76  40  27 CALM      30.28F
NORTH PLATTE   SUNNY     76  38  25 VRB6      30.27F
MCCOOK         SUNNY     78  39  24 NE8       30.26F
LEXINGTON      SUNNY     76  40  27 N5        30.26F
PAXTON           N/A     76  42  29 CALM        N/A
SUTHERLAND       N/A     81  33  17 CALM        N/A
BRADY            N/A     75  39  27 CALM        N/A
GOTHENBURG       N/A     74  33  22 N10         N/A
CALLAWAY         N/A     75  44  33 N10         N/A
$$

...SOME WEATHER OBSERVATIONS FROM AROUND THE REGION...

CITY           SKY/WX    TMP DP  RH WIND       PRES   REMARKS
DENVER         PTSUNNY   74  50  42 NW10      30.26F
LARAMIE        PTSUNNY   62  44  51 SE15G25   30.36R
CHEYENNE       MOSUNNY   66  43  43 SE14      30.33F
SCOTTSBLUFF    SUNNY     74  40  29 E17       30.28F
RAPID CITY     SUNNY     73  37  27 S8        30.27F
PIERRE         SUNNY     73  42  32 NW8       30.23F
WINNER         FAIR      74  37  26 N9        30.26F
SIOUX FALLS    MOSUNNY   71  45  39 NW15      30.22S
OMAHA          MOSUNNY   72  46  39 N17       30.20S
GRAND ISLAND   SUNNY     74  42  31 NE13      30.25F
KANSAS CITY    MOSUNNY   74  47  38 N15G23    30.15F
WICHITA        MOSUNNY   82  45  27 NE12G21   30.17F
HAYS           SUNNY     79  41  25 NE13      30.23F
LIBERAL        SUNNY     82  45  26 E15       30.23F
GOODLAND       PTSUNNY   74  38  27 VRB3      30.30F
$$



USA.gov is the U.S. government's official web portal to all federal, state and local government web resources and services.